Home > Weather > Xiamen > Past weeks

Flag for China Past Weather in Xiamen, Fujian, China — Yesterday and Last 2 Weeks

Now
84 °F

Passing clouds.


Feels Like: 90 °F
Forecast: 80 / 93 °F
Wind: 3 mph from Southwest

Location: Xiamen Airport

Current Time: Jul 27, 2016 at 12:09:59 AM

Latest Report: Jul 26, 2016 at 11:00 PM


Visibility: N/A

Pressure: 29.80 "Hg

Humidity: 66%

Dew Point: 72 °F

Location of XiamenLocation

Past Weather in Xiamen — Graph

°F

Xiamen Temperature Yesterday

Maximum temperature yesterday: 93 °F (at 1:00 PM)
Minimum temperature yesterday: 81 °F (at 3:00 AM)
Average temperature yesterday: 87 °F

High & Low Weather Summary for the Past Weeks

 TemperatureHumidityPressure
High97 °F (Jul 22, 2:00 PM)100% (Jul 13, 5:00 AM)29.89 "Hg (Jul 13, 5:00 AM)
Low79 °F (Jul 13, 5:00 AM)44% (Jul 25, 1:00 PM)29.59 "Hg (Jul 12, 2:00 AM)
Average86 °F81%29.75 "Hg
* Reported Jul 11 11:00 PM — Jul 26 11:00 PM, Xiamen, Weather by CustomWeather, © 2016

Note: Actual official high and low records may vary slightly from our data, if they occured in-between our weather recording intervals... More about our weather records

Advertising

Xiamen Weather History for the Previous 24 Hours

Scroll right to see more
 ConditionsComfort  
Time TempWeatherWind HumidityBarometerVisibility
11:00 PM
Tue, Jul 26
84 °FPassing clouds.3 mph66%29.80 "HgN/A
10:00 PM84 °FPassing clouds.6 mph66%29.80 "HgN/A
9:00 PM86 °FClear.6 mph66%29.80 "Hg10 mi
8:00 PM86 °FPassing clouds.6 mph62%29.77 "HgN/A
7:00 PM88 °FClear.10 mph55%29.74 "Hg10 mi
6:00 PM90 °FPassing clouds.13 mph55%29.71 "HgN/A
5:00 PM91 °FSunny.10 mph56%29.71 "Hg10 mi
4:00 PM93 °FPassing clouds.8 mph53%29.71 "HgN/A
3:00 PM93 °FPassing clouds.8 mph59%29.71 "HgN/A
2:00 PM91 °FPassing clouds.10 mph59%29.74 "HgN/A
1:00 PM93 °FSunny.8 mph67%29.74 "Hg10 mi
12:00 PM91 °FPassing clouds.6 mph63%29.77 "HgN/A
11:00 AM90 °FPassing clouds.8 mph67%29.80 "HgN/A
10:00 AM90 °FPassing clouds.8 mph67%29.80 "HgN/A
9:00 AM88 °FPassing clouds.6 mph75%29.80 "HgN/A
8:00 AM86 °FPassing clouds.3 mph75%29.80 "HgN/A
7:00 AM84 °FPassing clouds.1 mph79%29.80 "HgN/A
6:00 AM81 °FPassing clouds.No wind89%29.80 "HgN/A
5:00 AM81 °FClear.1 mph94%29.77 "Hg10 mi
4:00 AM81 °FClear.3 mph94%29.77 "Hg10 mi
3:00 AM81 °FClear.3 mph94%29.77 "Hg10 mi
2:00 AM82 °FPassing clouds.1 mph84%29.77 "HgN/A
1:00 AM82 °FPassing clouds.1 mph84%29.80 "HgN/A
12:00 AM84 °FPassing clouds.1 mph79%29.80 "HgN/A
Weather by CustomWeather, © 2016

See weather overviewHow to use our weather pages